#timestamp,LO_Frequency,Hit,StdDev 
1568786415.1,286047000.1,N
1568786435.9,286047000.3,N
1568786455.7,286047001.8,N
1568786475.5,286047006.0,N
1568786495.4,286047005.2,N
1568786515.2,286047003.5,N
1568786535.0,286047004.7,N
1568786536.0,286047004.7,N
1568786555.8,286047003.6,N
1568786575.6,286047000.9,N
1568786595.5,286046999.4,N
1568786615.3,286046996.5,N
1568786635.1,286046997.4,N
1568786655.9,286046996.5,N
1568786675.7,286047000.4,N
1568786695.5,286047000.3,N
1568786715.4,286046998.4,N
1568786735.2,286046998.8,N
1568786755.1,286046999.2,N
1568786756.0,286046999.2,N
1568786775.8,286047001.0,N
1568786795.6,286046998.7,N
1568786815.5,286046997.8,N
1568786835.3,286046999.0,N
1568786855.2,286046999.9,N
1568786875.9,286047004.3,N
1568786895.7,286047002.8,N
1568786915.6,286047000.6,N
1568786935.4,286046998.7,N
1568786955.2,286046997.6,N
1568786975.1,286046995.0,N
1568786976.0,286046995.0,N
1568786995.8,286046997.8,N
1568787015.7,286046999.3,N
1568787035.5,286047001.7,N
1568787055.3,286047001.0,N
1568787075.2,286046998.9,N
1568787095.0,286047000.1,N
1568787095.9,286047000.1,N
1568787115.7,286047002.6,N
1568787135.6,286047003.5,N
1568787155.4,286047004.3,N
1568787175.3,286046999.8,N
1568787195.1,286046999.5,N
1568787196.0,286046999.5,N
1568787215.8,286046995.9,N
1568787235.7,286046993.9,N
1568787255.5,286046996.8,N
1568787275.3,286046995.5,N
1568787295.2,286046998.0,N
1568787315.0,286046995.8,N
1568787315.9,286046995.8,N
1568787335.8,286046994.3,N
1568787355.6,286046992.6,N
1568787375.4,286046994.7,N
1568787395.3,286046993.8,N
1568787415.1,286046992.0,N
1568787435.7,286046992.1,N
1568787455.5,286046991.1,N
1568787475.4,286046989.8,N
1568787495.2,286046990.9,N
1568787515.0,286046991.5,N
1568787515.9,286046991.5,N
1568787535.8,286046989.3,N
1568787555.6,286046988.8,N
1568787575.5,286046990.8,N
1568787595.3,286046990.9,N
1568787615.1,286046990.9,N
1568787635.9,286046990.7,N
1568787655.7,286046990.8,N
1568787675.5,286046992.1,N
1568787695.4,286046993.9,N
1568787715.2,286046994.3,N
1568787735.0,286046993.9,N
1568787736.0,286046993.9,N
1568787755.8,286046992.8,Y
1568787775.6,286046996.7,P
1568787795.5,286046997.3,N
1568787815.3,286046995.0,N
1568787835.1,286046995.0,N
1568787855.9,286046995.9,N
1568787875.7,286046995.9,N
1568787895.6,286046994.9,Y
1568787915.4,286047002.6,P
1568787935.2,286047001.8,N
1568787955.1,286047002.5,N
1568787956.0,286047002.5,N
1568787975.8,286047002.7,N
1568787995.6,286046999.7,N
1568788015.5,286047000.5,N
1568788035.3,286046998.8,N
1568788055.2,286046999.2,N
1568788075.9,286046999.3,N
1568788095.7,286046999.9,N
1568788115.6,286047000.5,N
1568788135.4,286046998.3,N
1568788155.2,286047000.3,N
1568788175.1,286047002.5,N
1568788176.0,286047002.5,N
1568788195.8,286046999.0,N
1568788215.7,286046999.7,N
1568788235.5,286047000.5,N
1568788255.3,286046999.4,N
1568788275.2,286046995.5,N
1568788295.0,286046995.4,N
1568788295.9,286046995.4,N
1568788315.8,286046994.1,N
1568788335.6,286046993.5,N
1568788355.4,286046997.6,N
1568788375.3,286046997.3,N
1568788395.1,286046997.7,N
1568788396.0,286046997.7,N
1568788415.8,286046995.3,N
1568788435.7,286046995.6,N
1568788455.5,286046995.8,N
1568788475.3,286046997.4,N
1568788495.2,286046995.0,N
1568788515.0,286046997.2,N
1568788515.9,286046997.2,N
1568788535.8,286046993.9,N
1568788555.6,286046992.3,Y
1568788575.5,286046992.6,P
1568788595.3,286046990.9,P
1568788615.1,286046989.2,P
1568788635.9,286046989.1,Y
1568788655.7,286046997.5,P
1568788675.5,286046998.4,N
1568788695.4,286046999.3,N
1568788715.2,286047001.0,N
1568788735.1,286046999.3,N
1568788736.0,286046999.3,N
1568788755.8,286046997.7,N
1568788775.6,286046998.0,N
1568788795.5,286046995.2,N
1568788815.3,286046995.1,N
1568788835.2,286046996.0,N
1568788855.9,286046993.8,N
1568788875.7,286046994.0,N
1568788895.6,286046992.0,Y
1568788915.4,286046993.5,P
1568788935.3,286046996.3,N
1568788955.1,286046996.9,N
1568788956.0,286046996.9,N
1568788975.8,286046998.2,N
1568788995.7,286046996.7,N
1568789015.5,286047001.2,N
1568789035.3,286047004.3,N
1568789055.2,286047002.5,N
1568789075.0,286047001.6,N
1568789075.9,286047001.6,N
1568789095.8,286047000.5,N
1568789115.6,286046998.2,N
1568789135.4,286046998.8,N
1568789185.3,286047002.0,E
1568789195.2,286047000.1,N
1568789215.1,286047000.4,P
1568789216.0,286047000.4,N
1568789235.8,286046997.0,Y
1568789255.6,286046996.7,P
1568789275.5,286046993.5,P
1568789295.3,286046994.4,N
1568789315.2,286046994.0,N
1568789335.9,286046996.1,N
1568789355.7,286046995.3,N
1568789375.6,286046994.4,N
1568789395.4,286046990.3,Y
1568789415.2,286046996.3,P
1568789435.1,286046994.5,P
1568789436.0,286046994.5,P
1568789455.8,286046995.9,Y
1568789475.7,286046998.7,P
1568789495.5,286046997.2,N
1568789515.3,286046997.3,N
1568789535.2,286046998.8,N
1568789555.0,286047002.1,N
1568789555.9,286047002.1,N
1568789575.8,286047000.4,N
1568789595.6,286046999.4,N
1568789615.4,286046997.5,N
1568789635.3,286046995.3,N
1568789655.1,286046993.3,N
1568789675.8,286046995.2,N
1568789695.7,286046997.7,N
1568789715.5,286046997.9,N
1568789735.4,286046993.4,N
1568789755.2,286046998.0,N
1568789775.0,286046994.0,N
1568789775.9,286046994.0,N
1568789795.8,286046996.1,N
1568789815.6,286046995.4,N
1568789835.5,286046996.4,N
1568789855.3,286046997.8,N
1568789875.1,286046998.6,N
1568789895.9,286047001.1,N
1568789915.7,286046999.0,N
1568789935.5,286046994.9,N
1568789955.4,286046997.7,N
1568789975.2,286046995.9,N
1568789995.1,286046995.7,N
1568789996.0,286046995.7,N
